DW7787 Weather Reports


Display with metric or nautical units.
time (UTC)temp
F
wind
direction
speed
MPH
gust
MPH
rain 1hr
in
rain 24hr
in
rain mn
in
humidity
%
barometer
mb
20200707194131 79 119 0.0 0.0 0.00 0.03 0.03 91 1015.5
20200707193636 79 119 0.0 0.0 0.00 0.03 0.03 91 1015.7
20200707193129 78 119 0.0 0.0 0.00 0.03 0.03 90 1015.6
20200707192629 79 118 0.0 0.0 0.00 0.03 0.03 90 1015.7
20200707192130 79 118 0.0 0.0 0.00 0.03 0.03 90 1015.6
20200707191630 79 119 0.0 1.0 0.00 0.03 0.03 90 1015.5
20200707191130 79 119 0.0 1.0 0.00 0.03 0.03 91 1015.7
20200707190630 79 119 0.0 1.0 0.00 0.03 0.03 90 1015.7
20200707190130 79 119 0.0 0.0 0.00 0.03 0.03 92 1015.6
20200707185629 79 119 0.0 2.0 0.00 0.03 0.03 91 1015.6
20200707185128 79 118 0.0 2.0 0.00 0.03 0.03 91 1015.7
20200707184629 79 118 0.0 1.0 0.00 0.03 0.03 89 1015.7
20200707184130 80 118 0.0 2.0 0.00 0.03 0.03 88 1015.8
20200707183633 80 118 1.0 4.0 0.00 0.03 0.03 90 1015.8
20200707183131 80 123 1.0 4.0 0.00 0.03 0.03 90 1015.7
20200707182616 79 123 1.0 4.0 0.00 0.03 0.03 89 1015.8
20200707182115 79 123 1.0 4.0 0.00 0.03 0.03 91 1015.7
20200707181616 79 118 1.0 4.0 0.00 0.03 0.03 94 1015.9
20200707181114 79 119 1.0 4.0 0.00 0.03 0.03 93 1015.8
20200707180613 79 118 1.0 4.0 0.00 0.03 0.03 94 1015.9
20200707180114 78 118 1.0 4.0 0.01 0.03 0.03 97 1016.0
20200707175603 77 118 1.0 4.0 0.03 0.03 0.03 96 1016.0
20200707175103 77 118 1.0 4.0 0.03 0.03 0.03 96 1016.0
20200707174601 76 118 1.0 4.0 0.03 0.03 0.03 97 1016.1
20200707174101 76 119 0.0 2.0 0.03 0.03 0.03 96 1016.1
20200707173602 76 119 0.0 2.0 0.03 0.03 0.03 97 1016.2
20200707173105 76 118 0.0 2.0 0.03 0.03 0.03 97 1016.2
20200707172602 76 118 0.0 2.0 0.03 0.03 0.03 98 1016.2
20200707172101 75 119 0.0 0.0 0.03 0.03 0.03 98 1016.2
20200707171601 75 119 0.0 0.0 0.03 0.03 0.03 98 1016.4
20200707171104 75 118 0.0 0.0 0.03 0.03 0.03 98 1016.4
20200707170604 74 118 0.0 0.0 0.03 0.03 0.03 97 1016.3
20200707170101 75 118 0.0 0.0 0.02 0.02 0.02 96 1016.3
20200707165601 75 119 0.0 1.0 0.00 0.00 0.00 95 1016.6
20200707165103 75 117 0.0 1.0 0.00 0.00 0.00 95 1016.5
20200707164602 75 117 0.0 0.0 0.00 0.00 0.00 95 1016.4
20200707164333 76 117 0.0 1.0 0.00 0.00 0.00 93 1016.4
20200707163601 76 117 0.0 2.0 0.00 0.00 0.00 92 1016.3
20200707163104 78 233 0.0 2.0 0.00 0.00 0.00 89 1016.4
20200707162605 79 215 0.0 0.0 0.00 0.00 0.00 87 1016.4
20200707162101 80 219 0.0 1.0 0.00 0.00 0.00 88 1016.5
20200707161602 80 219 0.0 2.0 0.00 0.00 0.00 88 1016.4
20200707161108 80 219 0.0 2.0 0.00 0.00 0.00 88 1016.5
20200707160609 80 219 0.0 1.0 0.00 0.00 0.00 89 1016.5
20200707160102 79 219 0.0 1.0 0.00 0.00 0.00 89 1016.5
20200707155604 79 219 0.0 1.0 0.00 0.00 0.00 89 1016.5
20200707155105 79 219 0.0 0.0 0.00 0.00 0.00 88 1016.5
20200707154602 79 219 0.0 0.0 0.00 0.00 0.00 90 1016.6
20200707154103 79 219 0.0 2.0 0.00 0.00 0.00 88 1016.5
20200707153602 79 219 0.0 2.0 0.00 0.00 0.00 88 1016.6
20200707153104 79 219 0.0 2.0 0.00 0.00 0.00 89 1016.6
20200707152601 79 219 0.0 2.0 0.00 0.00 0.00 89 1016.6
20200707152103 80 219 0.0 2.0 0.00 0.00 0.00 88 1016.6
20200707151605 79 219 0.0 2.0 0.00 0.00 0.00 89 1016.6
20200707151101 79 219 0.0 0.0 0.00 0.00 0.00 90 1016.6
20200707150603 79 219 0.0 0.0 0.00 0.00 0.00 90 1016.7
20200707150104 78 219 0.0 0.0 0.00 0.00 0.00 91 1016.6
20200707145604 78 219 0.0 1.0 0.00 0.00 0.00 92 1016.7
20200707145103 78 219 0.0 1.0 0.00 0.00 0.00 92 1016.8
20200707144602 77 219 0.0 0.0 0.00 0.00 0.00 93 1016.7
20200707144106 77 219 0.0 0.0 0.00 0.00 0.00 92 1016.7
20200707143602 77 219 0.0 0.0 0.00 0.00 0.00 93 1016.7
20200707143106 77 219 0.0 1.0 0.00 0.00 0.00 94 1016.7
20200707142602 77 219 0.0 2.0 0.00 0.00 0.00 93 1016.7
20200707142105 77 219 0.0 2.0 0.00 0.00 0.00 94 1016.6
20200707141604 76 219 0.0 0.0 0.00 0.00 0.00 94 1016.6
20200707141104 76 219 0.0 0.0 0.00 0.00 0.00 94 1016.5
20200707140604 76 219 0.0 0.0 0.00 0.00 0.00 95 1016.6
20200707140103 76 219 0.0 0.0 0.00 0.00 0.00 95 1016.4
20200707135602 76 219 0.0 0.0 0.00 0.00 0.00 96 1016.5
20200707135105 76 219 0.0 0.0 0.00 0.00 0.00 97 1016.4
20200707134601 76 219 0.0 0.0 0.00 0.00 0.00 97 1016.4
20200707134104 76 219 0.0 0.0 0.00 0.00 0.00 97 1016.3
20200707133602 76 219 0.0 0.0 0.00 0.00 0.00 96 1016.3
20200707133104 76 219 0.0 0.0 0.00 0.00 0.00 96 1016.3
20200707132602 76 219 0.0 0.0 0.00 0.00 0.00 97 1016.4
20200707132104 75 219 0.0 0.0 0.00 0.00 0.00 97 1016.3
20200707131603 75 219 0.0 0.0 0.00 0.00 0.00 97 1016.3
20200707131102 75 219 0.0 0.0 0.00 0.00 0.00 98 1016.2
20200707130601 75 219 0.0 0.0 0.00 0.00 0.00 98 1016.3
20200707130104 75 219 0.0 0.0 0.00 0.00 0.00 98 1016.2
20200707125608 75 219 0.0 0.0 0.00 0.00 0.00 99 1016.3
20200707125107 74 219 0.0 0.0 0.00 0.00 0.00 99 1016.2
20200707124603 74 219 0.0 0.0 0.00 0.00 0.00 99 1016.1
20200707124105 74 219 0.0 0.0 0.00 0.00 0.00 100 1016.1
20200707123602 74 219 0.0 0.0 0.00 0.00 0.00 99 1016.0
20200707123102 74 219 0.0 0.0 0.00 0.00 0.00 99 1016.1
20200707122602 73 219 0.0 0.0 0.00 0.00 0.00 99 1016.2
20200707122105 73 219 0.0 0.0 0.00 0.00 0.00 100 1016.1
20200707121605 73 219 0.0 0.0 0.00 0.00 0.00 100 1016.1
20200707121102 73 219 0.0 0.0 0.00 0.00 0.00 100 1016.1
20200707120603 73 219 0.0 0.0 0.00 0.00 0.00 99 1016.2
20200707120105 73 219 0.0 0.0 0.00 0.00 0.00 99 1016.3
20200707115603 73 219 0.0 0.0 0.00 0.00 0.00 100 1016.3
20200707115104 73 219 0.0 0.0 0.00 0.00 0.00 100 1016.2
20200707114604 73 219 0.0 0.0 0.00 0.00 0.00 100 1016.1
20200707114106 72 219 0.0 0.0 0.00 0.00 0.00 99 1016.1
20200707113604 72 219 0.0 0.0 0.00 0.00 0.00 99 1016.2
20200707113106 72 219 0.0 0.0 0.00 0.00 0.00 99 1016.1
20200707112605 72 219 0.0 0.0 0.00 0.00 0.00 99 1016.1
20200707112106 72 219 0.0 0.0 0.00 0.00 0.00 99 1016.1
20200707111604 72 219 0.0 0.0 0.00 0.00 0.00 99 1016.0
20200707111105 72 219 0.0 0.0 0.00 0.00 0.00 99 1016.1
20200707110602 72 219 0.0 0.0 0.00 0.00 0.00 99 1016.1
20200707110103 71 219 0.0 0.0 0.00 0.00 0.00 99 1016.1
20200707105605 71 218 0.0 0.0 0.00 0.00 0.00 99 1016.1
20200707105104 71 218 0.0 0.0 0.00 0.00 0.00 99 1016.0
20200707104605 71 218 0.0 0.0 0.00 0.00 0.00 99 1016.0
20200707104108 71 218 0.0 0.0 0.00 0.00 0.00 99 1016.0
20200707103602 71 218 0.0 0.0 0.00 0.00 0.00 99 1016.0
20200707103102 71 218 0.0 0.0 0.00 0.00 0.00 99 1015.9
20200707102602 71 218 0.0 0.0 0.00 0.00 0.00 99 1016.0
20200707102108 71 218 0.0 0.0 0.00 0.00 0.00 98 1016.0
20200707101604 71 218 0.0 0.0 0.00 0.00 0.00 98 1016.0
20200707101103 71 218 0.0 0.0 0.00 0.00 0.00 98 1016.0
20200707100601 71 218 0.0 0.0 0.00 0.00 0.00 98 1016.0
20200707100104 71 218 0.0 0.0 0.00 0.00 0.00 98 1015.8
20200707095602 71 218 0.0 0.0 0.00 0.00 0.00 98 1015.8
20200707095102 71 218 0.0 0.0 0.00 0.00 0.00 98 1015.8
20200707094602 71 218 0.0 0.0 0.00 0.00 0.00 98 1015.7
20200707094107 72 218 0.0 0.0 0.00 0.00 0.00 98 1015.7
20200707093607 72 218 0.0 0.0 0.00 0.00 0.00 98 1015.6
20200707093105 72 218 0.0 0.0 0.00 0.00 0.00 98 1015.7
20200707092534 72 218 0.0 0.0 0.00 0.00 0.00 98 1015.6
20200707092033 72 218 0.0 0.0 0.00 0.00 0.00 98 1015.7
20200707091530 72 218 0.0 0.0 0.00 0.00 0.00 98 1015.6
20200707091030 72 218 0.0 0.0 0.00 0.00 0.00 98 1015.6
20200707090534 72 218 0.0 0.0 0.00 0.00 0.00 98 1015.6
20200707090031 72 218 0.0 0.0 0.00 0.00 0.00 98 1015.6
20200707085531 72 218 0.0 0.0 0.00 0.00 0.00 98 1015.5
20200707085030 72 218 0.0 0.0 0.00 0.00 0.00 98 1015.5
20200707084533 72 218 0.0 0.0 0.00 0.00 0.00 98 1015.5
20200707084034 72 218 0.0 0.0 0.00 0.00 0.00 98 1015.7
20200707083534 72 218 0.0 0.0 0.00 0.00 0.00 97 1015.7
20200707083031 72 218 0.0 0.0 0.00 0.00 0.00 97 1015.8
20200707082530 72 218 0.0 0.0 0.00 0.00 0.00 97 1015.8
20200707082030 72 218 0.0 0.0 0.00 0.00 0.00 97 1015.9
20200707081531 72 218 0.0 0.0 0.00 0.00 0.00 97 1015.9
20200707081033 72 218 0.0 0.0 0.00 0.00 0.00 97 1016.0
20200707080532 72 218 0.0 0.0 0.00 0.00 0.00 97 1016.0
20200707080031 72 218 0.0 0.0 0.00 0.00 0.00 97 1016.0
20200707075529 72 218 0.0 0.0 0.00 0.00 0.00 97 1016.2
20200707075033 73 218 0.0 0.0 0.00 0.00 0.00 97 1016.1
20200707074532 73 218 0.0 0.0 0.00 0.00 0.00 96 1016.1
20200707074030 73 218 0.0 0.0 0.00 0.00 0.00 96 1016.3
20200707073524 73 218 0.0 0.0 0.00 0.00 0.00 96 1016.3
20200707073012 73 218 0.0 0.0 0.00 0.00 0.00 96 1016.3
20200707072511 73 218 0.0 0.0 0.00 0.00 0.00 96 1016.4
20200707072006 73 218 0.0 0.0 0.00 0.00 0.00 96 1016.4
20200707071505 73 218 0.0 0.0 0.00 0.00 0.00 96 1016.4
20200707071003 73 218 0.0 0.0 0.00 0.00 0.00 96 1016.4
20200707070500 73 218 0.0 0.0 0.00 0.00 0.00 96 1016.5
20200707070009 73 218 0.0 0.0 0.00 0.00 0.00 96 1016.4
20200707065508 73 218 0.0 0.0 0.00 0.00 0.00 96 1016.5
20200707065006 73 218 0.0 0.0 0.00 0.00 0.00 96 1016.6
20200707064501 73 218 0.0 0.0 0.00 0.00 0.00 96 1016.6
20200707064006 73 218 0.0 0.0 0.00 0.00 0.00 96 1016.8
20200707063509 73 218 0.0 0.0 0.00 0.00 0.00 96 1016.8
20200707063006 73 218 0.0 0.0 0.00 0.00 0.00 96 1016.9
20200707062503 73 218 0.0 0.0 0.00 0.00 0.00 96 1016.8
20200707062005 73 218 0.0 0.0 0.00 0.00 0.00 95 1016.9
20200707061502 73 218 0.0 0.0 0.00 0.00 0.00 95 1016.9
20200707061005 73 218 0.0 0.0 0.00 0.00 0.00 95 1017.0
20200707060504 73 218 0.0 0.0 0.00 0.00 0.00 94 1017.0
20200707060005 74 218 0.0 0.0 0.00 0.00 0.00 94 1017.0
20200707055501 74 218 0.0 0.0 0.00 0.00 0.00 94 1017.1
20200707055005 74 218 0.0 0.0 0.00 0.00 0.00 94 1017.0
20200707054506 74 218 0.0 0.0 0.00 0.00 0.00 94 1016.8
20200707053940 74 218 0.0 0.0 0.00 0.00 0.00 93 1017.0
20200707053433 74 218 0.0 0.0 0.00 0.00 0.00 93 1016.9
20200707052932 74 218 0.0 0.0 0.00 0.00 0.00 93 1016.9
20200707052429 74 218 0.0 0.0 0.00 0.00 0.00 93 1017.1
20200707051922 74 218 0.0 0.0 0.00 0.00 0.00 93 1017.1
20200707051414 74 218 0.0 0.0 0.00 0.00 0.00 93 1017.0
20200707050904 74 218 0.0 0.0 0.00 0.00 0.00 93 1017.0
20200707050405 74 218 0.0 0.0 0.00 0.00 0.00 93 1017.0
20200707045906 74 218 0.0 0.0 0.00 0.00 0.00 93 1017.1
20200707045404 74 218 0.0 0.0 0.00 0.00 0.00 93 1017.1
20200707044906 74 218 0.0 0.0 0.00 0.00 0.00 93 1017.1
20200707044404 74 218 0.0 0.0 0.00 0.00 0.00 93 1017.0
20200707043904 75 218 0.0 0.0 0.00 0.00 0.00 93 1017.0
20200707043404 75 218 0.0 0.0 0.00 0.00 0.00 93 1017.0
20200707042903 75 218 0.0 0.0 0.00 0.00 0.00 93 1017.1
20200707042405 75 218 0.0 0.0 0.00 0.00 0.00 93 1017.0
20200707041910 75 218 0.0 0.0 0.00 0.00 0.00 93 1017.2
20200707041413 75 218 0.0 0.0 0.00 0.00 0.00 93 1017.1
20200707040908 75 218 0.0 0.0 0.00 0.00 0.00 93 1017.1
20200707040414 75 218 0.0 0.0 0.00 0.00 0.00 92 1017.2
20200707035909 75 218 0.0 0.0 0.00 0.00 0.00 92 1017.1
20200707035407 75 218 0.0 0.0 0.00 0.00 0.00 92 1017.0
20200707034906 75 218 0.0 0.0 0.00 0.00 0.00 92 1017.1
20200707034402 75 218 0.0 0.0 0.00 0.00 0.00 92 1017.1
20200707033901 75 218 0.0 0.0 0.00 0.00 0.00 92 1017.1
20200707033407 75 218 0.0 0.0 0.00 0.00 0.00 92 1017.0
20200707032915 75 218 0.0 0.0 0.00 0.00 0.00 92 1016.9
20200707032406 75 218 0.0 0.0 0.00 0.00 0.00 92 1016.9
20200707031910 75 218 0.0 0.0 0.00 0.00 0.00 92 1016.9
20200707031406 75 218 0.0 0.0 0.00 0.00 0.00 92 1017.0
20200707030909 75 218 0.0 0.0 0.00 0.00 0.00 91 1016.9
20200707030410 75 218 0.0 0.0 0.00 0.00 0.00 91 1017.0
20200707025901 75 218 0.0 0.0 0.00 0.00 0.00 91 1016.9
20200707025402 75 218 0.0 0.0 0.00 0.00 0.00 91 1017.0
20200707024904 75 218 0.0 0.0 0.00 0.00 0.00 91 1017.1
20200707024416 75 218 0.0 0.0 0.00 0.00 0.00 91 1017.1
20200707023858 75 218 0.0 0.0 0.00 0.00 0.00 91 1017.0
20200707023351 75 218 0.0 0.0 0.00 0.00 0.00 91 1017.0
20200707022836 75 218 0.0 0.0 0.00 0.00 0.00 91 1017.0
20200707022330 75 218 0.0 0.0 0.00 0.00 0.00 91 1017.0
20200707021831 76 218 0.0 0.0 0.00 0.00 0.00 91 1016.9
20200707021329 76 218 0.0 0.0 0.00 0.00 0.00 91 1017.0
20200707020831 76 218 0.0 0.0 0.00 0.00 0.00 90 1016.9
20200707020329 76 218 0.0 0.0 0.00 0.00 0.00 89 1016.9
20200707015830 76 218 0.0 0.0 0.00 0.00 0.00 89 1016.7
20200707015330 76 218 0.0 0.0 0.00 0.00 0.00 89 1016.9
20200707014837 76 218 0.0 0.0 0.00 0.00 0.00 88 1016.7
20200707014335 76 218 0.0 0.0 0.00 0.00 0.00 88 1016.6
20200707013842 76 218 0.0 0.0 0.00 0.00 0.00 88 1016.5
20200707013332 76 218 0.0 0.0 0.00 0.00 0.00 88 1016.5
20200707012832 76 218 0.0 0.0 0.00 0.00 0.00 88 1016.4
20200707012332 76 218 0.0 0.0 0.00 0.00 0.00 88 1016.6
20200707011837 76 218 0.0 0.0 0.00 0.00 0.00 88 1016.4
20200707011328 76 218 0.0 0.0 0.00 0.00 0.00 87 1016.5
20200707010830 76 218 0.0 0.0 0.00 0.00 0.00 87 1016.5
20200707010330 77 218 0.0 0.0 0.00 0.00 0.00 87 1016.5
20200707005834 77 218 0.0 0.0 0.00 0.00 0.00 86 1016.4
20200707005336 77 218 0.0 0.0 0.00 0.00 0.00 86 1016.6
20200707004829 77 218 0.0 0.0 0.00 0.00 0.00 86 1016.6
20200707004330 77 218 0.0 0.0 0.00 0.00 0.00 85 1016.6
20200707003829 77 218 0.0 0.0 0.00 0.00 0.00 85 1016.7
20200707003330 77 218 0.0 0.0 0.00 0.00 0.00 84 1016.7
20200707002838 77 218 0.0 0.0 0.00 0.00 0.00 84 1016.6
20200707002330 77 218 0.0 0.0 0.00 0.00 0.00 84 1016.5
20200707001830 78 218 0.0 0.0 0.00 0.00 0.00 83 1016.4
20200707001330 78 218 0.0 0.0 0.00 0.00 0.00 83 1016.5
20200707000830 78 218 0.0 0.0 0.00 0.00 0.00 83 1016.5
20200707000329 78 218 0.0 0.0 0.00 0.00 0.00 82 1016.5
20200706235831 78 218 0.0 0.0 0.00 0.00 0.00 82 1016.6
20200706235329 78 218 0.0 1.0 0.00 0.00 0.00 82 1016.7
20200706234844 78 218 0.0 2.0 0.00 0.00 0.00 81 1016.6
20200706234326 78 218 0.0 2.0 0.00 0.00 0.00 81 1016.6
20200706233826 78 219 0.0 2.0 0.00 0.00 0.00 80 1016.7
20200706233320 78 218 0.0 0.0 0.00 0.00 0.00 80 1016.7
20200706232818 79 219 0.0 0.0 0.00 0.00 0.00 80 1016.6
20200706232317 79 219 0.0 0.0 0.00 0.00 0.00 79 1016.5
20200706231814 79 218 0.0 0.0 0.00 0.00 0.00 79 1016.6
20200706231314 79 218 0.0 0.0 0.00 0.00 0.00 79 1016.6
20200706230811 79 219 0.0 0.0 0.00 0.00 0.00 78 1016.6
20200706230310 79 218 0.0 0.0 0.00 0.00 0.00 79 1016.8
20200706225810 79 218 0.0 0.0 0.00 0.00 0.00 79 1016.8
20200706225305 79 219 0.0 0.0 0.00 0.00 0.00 78 1016.8
20200706224803 79 219 0.0 3.0 0.00 0.00 0.00 78 1016.9
20200706224302 79 218 0.0 3.0 0.00 0.00 0.00 77 1016.9
20200706223804 80 218 1.0 3.0 0.00 0.00 0.00 76 1016.9
20200706223302 80 229 1.0 3.0 0.00 0.00 0.00 74 1016.8
20200706222803 80 188 0.0 2.0 0.00 0.00 0.00 75 1016.6
20200706222303 80 172 0.0 0.0 0.00 0.00 0.00 77 1016.6
20200706221802 80 172 1.0 4.0 0.00 0.00 0.00 76 1016.6
20200706221301 80 172 1.0 4.0 0.00 0.00 0.00 74 1016.4
20200706220811 80 172 2.0 5.0 0.00 0.00 0.00 74 1016.5
20200706220300 81 172 1.0 5.0 0.00 0.00 0.00 73 1016.5
20200706215803 81 173 1.0 4.0 0.00 0.00 0.00 72 1016.5
20200706215301 81 173 1.0 5.0 0.00 0.00 0.00 74 1016.6
20200706214803 81 173 1.0 5.0 0.00 0.00 0.00 72 1016.6
20200706214303 81 184 2.0 4.0 0.00 0.00 0.00 72 1016.5
20200706213803 81 202 1.0 3.0 0.00 0.00 0.00 73 1016.5
20200706213302 81 202 0.0 3.0 0.00 0.00 0.00 75 1016.5
20200706212807 81 202 0.0 3.0 0.00 0.00 0.00 73 1016.5
20200706212303 81 122 0.0 4.0 0.00 0.00 0.00 73 1016.6
20200706211802 82 123 0.0 4.0 0.00 0.00 0.00 73 1016.6
20200706211302 83 81 0.0 3.0 0.00 0.00 0.00 74 1016.7
20200706210806 82 80 1.0 3.0 0.00 0.00 0.00 73 1016.6
20200706210302 82 76 1.0 3.0 0.00 0.00 0.00 75 1016.8
20200706205801 82 78 1.0 3.0 0.00 0.00 0.00 75 1016.6
20200706205301 81 78 1.0 4.0 0.00 0.00 0.00 76 1016.7
20200706204802 81 78 1.0 4.0 0.00 0.00 0.00 76 1016.7
20200706204302 81 78 1.0 4.0 0.00 0.00 0.00 75 1016.7
20200706203806 81 52 2.0 4.0 0.00 0.00 0.00 75 1016.7
20200706203305 82 40 1.0 4.0 0.00 0.00 0.00 74 1016.7
20200706202805 83 0 2.0 6.0 0.00 0.00 0.00 73 1016.7
20200706202301 83 242 2.0 6.0 0.00 0.00 0.00 74 1016.7
20200706201802 83 217 1.0 5.0 0.00 0.00 0.00 75 1016.8
20200706201255 83 171 1.0 5.0 0.00 0.00 0.00 74 1017.0
20200706200800 84 340 1.0 4.0 0.00 0.01 0.00 75 1016.9
20200706200254 83 338 2.0 4.0 0.00 0.01 0.00 74 1016.9
20200706195754 84 57 2.0 5.0 0.00 0.01 0.00 73 1016.9
20200706195254 84 111 2.0 6.0 0.00 0.03 0.00 72 1016.9
20200706194745 84 123 2.0 6.0 0.00 0.06 0.00 72 1017.0